Regional Weather Roundup
Issued by NWS

Home | Current Version | Previous Version | Text Only | Print | Product List | Glossary Off
Versions: 1 2 3 4 5 6 7 8 9 10 11 12 13 14 15 16 17 18 19 20 21 22 23 24 25 26 27 28 29 30 31 32 33 34 35 36 37 38 39 40 41 42 43 44 45 46 47 48 49 50

000
ASUS43 KDMX 221701
RWRIA

WEATHER ROUNDUP FOR IOWA
NATIONAL WEATHER SERVICE DES MOINES IA
1200 PM CDT WED MAR 22 2017

NOTE: "FAIR" INDICATES FEW OR NO CLOUDS BELOW 12,000 FEET WITH NO
SIGNIFICANT WEATHER AND/OR OBSTRUCTIONS TO VISIBILITY.

* - THESE STATIONS ARE NOT NWS STATIONS...THUS NOT UNDER NWS
QUALITY CONTROL.  THEY ALSO DO NOT REPORT WEATHER SUCH
AS PRECIPITATION OR FOG.

IAZ001>003-012>014-020>022-031>034-043>046-221800-
   NORTHWEST IOWA

CITY           SKY/WX    TMP DP  RH WIND       PRES   REMARKS
CARROLL *      CLOUDY    34  25  69 SE16      30.44F WCI  23
CHEROKEE *     CLOUDY    33  21  61 SE12      30.43F WCI  24
DENISON *      CLOUDY    34  23  64 SE10      30.41F WCI  26
LE MARS *      CLOUDY    34  19  55 SE12G18   30.42F WCI  25
ORANGE CITY *  CLOUDY    32  19  59 SE10      30.40F WCI  24
SHELDON *      CLOUDY    32  23  69 S15       30.41S WCI  22
SIOUX CITY     CLOUDY    34  21  59 SE13      30.40F WCI  25
SPENCER        CLOUDY    33  21  61 S20       30.44F WCI  21
STORM LAKE *   CLOUDY    32  21  64 SE14      30.43S WCI  22
$$

IAZ055>058-069>071-079>083-090>094-221800-
   SOUTHWEST IOWA

CITY           SKY/WX    TMP DP  RH WIND       PRES   REMARKS
ATLANTIC *     CLOUDY    37  25  60 SE10      30.43S WCI  30
AUDUBON *      CLOUDY    36  27  69 SE12      30.44S WCI  27
CLARINDA *     CLOUDY    39  27  60 SE8       30.45R WCI  34
COUNCIL BLFS * CLOUDY    39  23  52 SE12      30.40F WCI  32
CRESTON *      CLOUDY    37  25  60 E13       30.44R WCI  29
HARLAN  *      CLOUDY    36  25  64 SE13      30.45F WCI  27
LAMONI         CLOUDY    39  26  59 E9G18     30.42F WCI  33
RED OAK *      CLOUDY    41  25  52 E12       30.42F
SHENANDOAH *   CLOUDY    41  25  52 E9        30.42F
$$

IAZ047>049-059>061-072>074-084-221800-
   CENTRAL IOWA

CITY           SKY/WX    TMP DP  RH WIND       PRES   REMARKS
AMES           CLOUDY    38  24  57 SE14G22   30.47F WCI  30
ANKENY *       CLOUDY    39  23  52 SE17      30.49S WCI  30
BOONE *        CLOUDY    37  21  52 SE16G23   30.45S WCI  28
CHARITON *     CLOUDY    39  27  60 E16       30.44F WCI  30
DES MOINES     CLOUDY    39  24  55 E14       30.47F WCI  31
GRINNELL*      SUNNY     38  22  52 E15G23    30.50F WCI  29
MARSHALLTOWN   SUNNY     38  22  52 SE12      30.49F WCI  30
NEWTON *       SUNNY     39  23  52 SE16G23   30.48F WCI  30
PELLA *        SUNNY     38  26  60 SE16      30.50F WCI  29
PERRY *        CLOUDY    36  22  56 SE10      30.47S WCI  28
$$

IAZ004>006-015-016-023>025-035-036-221800-
   NORTH CENTRAL IOWA

CITY           SKY/WX    TMP DP  RH WIND       PRES   REMARKS
ALGONA *       CLOUDY    34  23  64 S16G22    30.48R WCI  23
CLARION *      CLOUDY    36  21  55 SE16      30.48F WCI  26
ESTHERVILLE    CLOUDY    31  22  69 SE20      30.45F WCI  19
FORT DODGE *   CLOUDY    36  19  51 SE9       30.48F WCI  29
MASON CITY     SUNNY     34  19  54 S20       30.51S WCI  23
FOREST CITY *    N/A     34  21  60 SE16G22   30.50R WCI  23
WEBSTER CITY * MIX PCPN  37  23  56 SE16      30.46F WCI  28
IOWA FALLS *   PTSUNNY   36  22  56 SE15G21   30.50F WCI  27
$$

IAZ007>011-017>019-026>030-037>042-050>054-066-221800-
   NORTHEAST IOWA

CITY           SKY/WX    TMP DP  RH WIND       PRES   REMARKS
CEDAR RAPIDS   MOSUNNY   36  20  52 E12       30.53F WCI  28
CHARLES CITY * SUNNY     34  14  44 SE13G20   30.52S WCI  25
CLINTON *      SUNNY     35  16  45 E12       30.56F WCI  27
DECORAH *      SUNNY     30   7  37 E7G17     30.53S WCI  23
DUBUQUE        SUNNY     31  11  43 SE6       30.55F WCI  25
MONTICELLO *   SUNNY     34  14  44 E9G18     30.55F WCI  26
OELWEIN *      SUNNY     34  16  47 SE17      30.53S WCI  23
WATERLOO         N/A     34  17  50 SE14      30.52F WCI  25
$$

IAZ064-065-067-068-078-221800-
   EAST CENTRAL IOWA

CITY           SKY/WX    TMP DP  RH WIND       PRES   REMARKS
DAVENPORT      SUNNY     37  16  42 E14       30.56F WCI  28
IOWA CITY      SUNNY     38  19  46 E10       30.55F WCI  31
MUSCATINE *    SUNNY     39  18  41 E13       30.56F WCI  32
QUAD CITIES    SUNNY     37  17  44 E12       30.56S WCI  29
$$

IAZ062-063-075>077-085>089-095>099-221800-
   SOUTHEAST IOWA

CITY           SKY/WX    TMP DP  RH WIND       PRES   REMARKS
BURLINGTON     MOSUNNY   39  24  55 E13G21    30.52F WCI  31
FAIRFIELD *    CLOUDY    39  23  52 E13G20    30.51F WCI  32
FORT MADISON * SUNNY     45  27  49 E14       30.52F
KEOKUK *       SUNNY     39  23  52 E15G23    30.51S WCI  31
OSKALOOSA *      N/A     38  26  61 SE14      30.50F WCI  30
CENTERVILLE *    N/A     39  25  56 E12       30.47F WCI  32
OTTUMWA        SUNNY     40  24  53 SE14G22   30.49F WCI  32
WASHINGTON *   SUNNY     39  19  45 SE14G21   30.53F WCI  31
$$

ABBREVIATIONS USED IN REMARKS
   TC - TEMPERATURES IN CELSIUS
  WCI - WIND CHILL INDEX
   HX - HEAT INDEX
  VSB - VISIBILITY
$$




USA.gov is the U.S. government's official web portal to all federal, state and local government web resources and services.